EUTELSAT KONNECT VHTS (53765 NORAD) Tracking and Keplerian Element Data

This shows tracking and keplerian element data for the satellite.

Feedback or suggestion? Click here.




ElementValue
Catalog53765
NameEUTELSAT KONNECT VHTS
Epoch Orbit74
Epoch Day321.76729699
Epoch Year2022
RAAN138.5862
Inclination1.1559
Eccentricity0.5342561
Argument of Perigee186.6221
Mean Anonmoly23.322
Mean Motion0.93183583
Decay Rate-4.5E-07
L11 53765U 22110A 22321.76729699 -.00000045 00000+0 00000+0 0 9995
L22 53765 1.1559 138.5862 5342561 186.6221 23.3220 0.93183583 747



Live tracking and technical data element details for EUTELSAT KONNECT VHTS (NORAD 53765). EUTELSAT KONNECT VHTS can be tracked NOW for your location showing map with azimuth and elevation plus other details from your city location.







IsCatalogInMostPopularTable: catalog: 53765, numindb: -1

Insert: records affected: 1


GetName: 53765 EUTELSAT KONNECT VHTS

Hit Count: inserted at: Thu, 08 Dec 2022 08:34:47 GMT